SCP
0 0 0 1 1 1 1 1 0 0 0 0 0 0 0 0 0 0 1 0 0 0 0 0 0 0 0 0 0 0 0 0 0 0 0 0 1 1
0 0 0 0 1 1 1 1 0 0 0 1 1 0 0 0 0 0 0 0 0 0 0 0 0 0 0 0 0 0 0 0 0 0 0 0 0 1
0 0 0 0 0 1 1 1 0 0 0 1 1 0 0 0 0 0 0 0 0 0 0 0 0 0 0 0 0 0 0 0 0 0 0 0 0 0
0 0 0 0 0 0 0 0 0 0 0 1 1 0 0 0 0 0 0 0 0 0 0 0 0 0 0 0 0 0 0 0 0 0 0 0 0 0
0 0 0 0 0 0 0 0 0 0 0 0 0 0 0 0 0 0 0 0 0 0 0 0 0 0 0 0 0 0 0 0 0 0 0 0 0 0
0 0 0 0 0 0 0 0 0 0 0 0 0 0 0 0 0 0 0 0 0 0 0 0 0 0 0 0 0 0 0 0 0 0 0 0 0 0
0 0 0 0 0 0 0 0 0 0 0 0 0 0 0 0 0 0 0 0 0 0 0 0 0 0 0 0 0 0 0 0 0 0 0 0 0 0
0 0 0 0 0 0 0 0 0 0 0 0 0 0 0 0 0 0 0 0 0 0 0 0 0 0 0 0 0 0 0 0 0 0 0 0 0 0
0 0 0 0 0 0 0 0 0 0 0 0 0 0 0 0 0 0 0 0 0 0 0 0 0 0 0 0 0 0 0 0 0 0 0 0 0 0
1 1 1 1 0 0 0 0 0 0 0 0 0 0 0 0 0 0 0 0 0 0 0 0 0 0 0 0 0 0 0 0 0 0 0 0 0 0
1 1 1 1 0 0 0 0 0 0 0 0 0 0 0 0 0 0 0 0 0 0 0 0 0 0 0 0 0 0 0 0 0 0 0 0 0 0
1 0 0 0 0 0 0 0 0 0 0 0 0 0 0 0 0 0 0 0 0 0 0 0 0 0 0 0 0 0 0 0 0 0 0 0 0 0
0 0 0 0 0 0 0 0 0 0 0 0 0 0 0 0 0 0 0 0 0 0 0 0 0 0 0 0 0 0 0 0 0 0 0 0 0 0
0 0 0 0 0 0 0 0 0 0 0 0 0 0 0 1 0 0 0 0 0 0 0 0 0 0 0 0 0 0 0 0 0 0 0 0 0 0
0 0 0 0 0 0 0 0 0 0 0 0 0 0 0 0 1 1 1 1 1 1 1 1 1 1 0 0 0 0 0 0 0 0 0 1 1 1
0 0 0 0 0 0 0 0 0 0 0 0 0 0 0 0 1 1 1 1 1 1 1 1 1 1 1 1 1 0 0 0 0 0 1 1 1 1
0 0 0 0 0 0 0 0 0 0 0 0 0 0 0 1 1 1 1 1 0 0 0 1 1 1 1 1 1 1 0 0 0 1 1 1 1 1
0 0 0 0 0 0 0 0 0 0 1 1 1 1 1 1 1 1 1 1 1 0 0 0 0 1 1 1 1 0 0 0 0 1 1 1 1 1
0 0 0 0 0 0 0 0 0 0 1 1 1 1 1 1 1 1 1 1 1 1 0 0 0 0 0 0 0 0 0 0 0 0 0 0 0 0
0 0 0 0 1 0 0 0 0 0 0 1 1 1 1 1 1 1 1 1 1 1 0 0 0 0 0 0 0 0 0 0 0 0 0 0 0 0
0 0 0 0 1 1 1 0 1 1 1 0 1 1 1 1 1 1 1 1 0 0 0 0 0 0 0 0 0 0 0 0 0 0 0 0 0 0
1 1 1 1 1 1 1 0 1 1 1 1 0 0 0 0 1 1 1 1 0 0 0 0 0 0 0 1 0 0 0 0 0 0 0 0 0 0
1 1 1 1 1 1 1 0 0 1 1 1 1 0 0 0 1 1 1 1 1 0 0 0 0 0 0 0 0 0 0 0 0 0 0 0 0 0
Wind_Speed
3 3 2 2 1 2 1 2 2 2 2 1 1 1 1 1 2 2 2 4 4 4 4 4 4 3 2 2 1 1 2 2 3 3 4 4 5 5
2 2 2 2 1 2 2 2 2 2 2 1 1 1 1 1 3 2 2 5 5 5 4 4 5 4 4 3 2 2 1 2 3 3 4 4 5 5
3 3 2 2 1 2 1 1 1 1 1 1 1 1 1 2 2 3 3 3 3 5 5 5 5 5 5 4 3 3 2 2 2 3 3 4 5 5
3 3 3 2 2 2 2 2 1 1 1 1 1 1 2 3 3 3 3 3 3 6 6 6 6 6 6 5 4 4 3 3 2 2 2 3 4 4
3 3 2 2 2 2 2 2 2 1 1 1 2 1 2 3 2 3 3 2 3 5 7 7 7 7 7 6 5 5 4 4 3 3 3 3 3 3
3 2 2 2 2 2 2 2 2 1 1 1 2 1 2 2 2 2 2 2 2 3 4 5 6 7 7 7 7 6 6 5 4 4 3 3 3 3
3 3 2 2 2 2 2 3 3 2 1 1 1 1 1 1 2 2 2 2 2 2 2 3 4 3 4 6 8 8 8 7 6 6 5 5 4 4
3 3 2 1 1 1 2 3 3 2 2 1 1 1 1 1 1 1 1 1 1 1 2 2 2 3 4 4 9 11 10 9 8 7 7 6 6 6
3 3 3 3 2 2 2 4 3 3 3 1 2 2 1 1 1 2 1 1 1 1 1 2 2 2 3 4 11 12 11 10 9 8 8 7 7 7
3 2 2 2 3 3 3 3 2 1 2 2 2 2 2 1 2 2 2 2 2 2 2 1 2 2 2 3 9 12 11 10 9 9 8 8 7 7
3 2 1 1 2 3 3 3 3 2 2 2 3 3 3 4 3 1 2 1 1 2 1 2 2 1 1 2 5 11 11 11 10 9 9 8 8 6
2 1 1 1 1 2 2 3 3 3 3 2 3 4 4 5 5 4 2 2 1 1 1 1 1 0 1 1 3 4 6 8 10 10 10 10 9 4
3 2 1 1 2 3 3 3 4 4 4 3 3 3 3 3 3 4 3 2 2 2 1 0 1 1 1 1 1 3 4 4 5 6 10 11 11 8
4 3 2 3 5 6 5 6 7 5 4 3 2 2 2 3 3 4 4 4 4 4 3 2 2 2 2 2 2 2 3 4 4 4 5 8 10 11
4 6 7 8 8 7 9 9 6 4 4 3 3 3 3 3 2 2 3 4 4 5 5 4 4 3 2 3 3 2 2 3 3 3 4 4 5 5
4 6 8 10 8 8 7 6 5 5 4 3 3 3 3 3 3 3 3 3 3 3 5 6 5 5 4 4 4 4 3 3 3 3 3 4 4 4
4 4 4 4 4 4 4 4 4 4 4 4 4 3 3 3 3 3 3 3 3 4 4 4 6 6 7 5 4 4 4 4 3 3 3 3 4 4
3 4 5 5 5 4 3 3 3 3 4 4 3 3 3 3 3 3 3 4 4 4 3 4 3 3 3 5 7 6 5 4 4 4 3 4 4 4
3 5 5 4 4 4 4 3 3 2 2 3 2 3 3 3 3 3 3 3 3 4 3 3 3 3 4 5 6 8 5 4 3 3 4 4 5 4
5 6 5 5 5 4 4 3 3 2 2 3 3 3 3 3 3 3 3 4 4 4 4 3 3 4 5 5 4 4 8 6 4 4 4 4 4 4
6 5 4 4 4 4 3 3 3 3 3 3 3 3 3 3 3 4 4 6 6 5 5 4 6 8 5 3 3 3 4 8 8 5 4 4 4 4
6 5 4 4 3 3 3 4 3 3 3 3 3 3 3 3 4 5 5 4 4 4 5 4 3 3 3 4 5 5 5 4 6 9 9 8 5 5
5 4 4 4 4 3 3 3 3 2 2 2 2 3 4 3 4 4 4 4 4 4 4 4 3 3 4 5 5 5 6 5 4 4 6 11 14 14
Wind_Direction
295 298 289 277 272 263 244 228 231 266 262 242 238 199 165 149 177 201 175 176 179 181 180 181 184 192 189 177 174 176 197 203 202 202 206 212 214 215
293 294 298 287 283 268 249 251 242 236 257 237 233 197 208 215 210 229 196 181 188 185 187 191 189 187 181 183 183 177 176 194 202 208 212 213 211 211
323 325 317 315 314 299 293 271 256 236 238 260 235 206 214 229 227 230 209 196 192 194 200 199 192 188 190 189 189 186 180 176 189 207 217 218 218 216
336 339 330 315 322 317 324 314 295 256 220 237 233 218 228 228 229 232 224 210 180 194 200 201 196 193 192 190 189 192 191 191 193 197 206 218 222 218
331 327 323 324 326 324 323 317 304 292 236 229 246 235 233 230 232 247 239 227 205 186 195 200 200 198 196 193 193 194 192 193 196 201 209 214 206 205
330 326 324 328 330 326 321 326 322 313 282 246 243 229 234 234 226 243 240 236 235 191 184 189 196 201 201 197 198 198 198 200 203 208 210 212 210 215
332 337 339 352 9 341 339 342 334 307 290 271 253 241 235 236 242 249 240 234 232 198 180 194 185 193 203 206 205 202 201 203 206 209 211 217 223 227
318 314 307 302 356 318 307 300 298 307 318 311 308 288 268 250 268 270 261 260 249 193 175 225 195 191 198 195 194 195 199 202 206 208 212 218 224 228
297 298 314 349 354 325 301 289 269 253 243 257 286 282 298 331 308 292 289 274 263 230 197 245 217 205 201 188 179 187 194 199 203 209 215 222 227 230
300 302 302 332 351 344 318 312 309 282 230 218 261 292 314 316 286 272 266 268 262 254 213 226 239 225 200 161 182 188 194 200 205 212 219 226 232 235
301 321 323 359 4 351 325 311 313 308 243 220 232 263 274 276 273 288 291 287 285 271 232 207 229 231 208 179 191 197 201 204 209 215 221 226 230 234
304 297 20 10 4 353 313 304 303 305 314 299 260 253 248 246 237 225 239 251 268 270 250 219 240 255 278 216 187 190 208 218 219 223 225 228 228 223
314 316 337 325 298 293 284 274 274 290 289 276 267 250 234 228 222 221 220 217 234 249 247 227 255 262 247 271 250 204 194 200 207 223 228 229 224 209
298 311 312 306 294 288 276 269 278 287 274 267 263 260 246 231 220 212 216 219 218 220 227 224 235 237 247 263 260 234 216 208 204 206 209 216 224 221
287 299 298 288 288 276 258 261 267 258 251 250 246 245 242 239 227 216 225 223 226 226 220 219 223 234 236 246 258 247 244 237 219 210 210 209 211 206
279 292 286 275 269 267 270 252 233 234 236 244 242 237 239 242 240 226 225 224 228 234 228 220 220 225 240 244 242 248 240 236 227 220 221 225 219 211
326 293 281 271 261 254 247 239 231 221 228 236 235 241 242 238 239 229 225 231 233 233 233 228 220 219 224 230 247 247 244 241 229 219 220 234 235 224
305 282 283 279 278 276 272 258 239 231 230 230 229 235 243 241 242 238 236 237 240 239 232 228 224 224 236 241 226 235 239 236 232 225 223 231 244 234
256 267 268 270 272 271 269 267 262 249 236 236 239 244 251 255 253 250 247 248 249 249 242 227 219 223 244 256 247 220 221 232 236 237 230 228 237 234
241 253 256 256 257 257 260 268 267 258 252 246 240 241 241 248 255 259 255 254 253 251 250 237 230 229 238 251 252 233 219 220 228 237 243 245 243 237
262 259 254 256 260 259 253 252 252 253 256 256 253 248 246 254 261 262 263 263 261 257 255 246 235 228 233 244 256 246 233 225 221 223 229 239 250 249
260 264 263 261 263 267 264 261 258 250 249 253 260 261 260 257 262 265 268 269 260 260 264 262 247 231 230 241 252 252 245 241 241 240 238 227 221 225
263 264 268 269 267 265 267 275 283 289 281 271 272 274 271 268 271 271 272 275 273 267 266 267 261 248 250 248 249 250 250 243 239 241 249 242 237 242